Terminal Aerodrome Forecast
Issued by NWS

Home | Current Version | Previous Version | Text Only | Print | Product List | Glossary On
Versions: 1 2 3 4 5 6 7 8 9 10 11 12 13 14 15 16 17 18 19 20 21 22 23 24 25 26
000
FTUS45 KRIW 282000 AAA
TAFPNA
TAF AMD
KPNA 282011Z 2820/2918 27025G35KT P6SM FEW110
     FM290200 31010KT P6SM FEW150
     FM290900 30006KT P6SM SKC
      AMD LTD TO CLD VIS AND WIND=

USA.gov is the U.S. government's official web portal to all federal, state and local government web resources and services.